[[{"header":{"parameterUnit":"m.s-1","parameterCategory":2,"la1":30.2991,"la2":30.254,"lo1":-89.0895,"lo2":-89.0444,"dy":0.0017,"dx":0.0017,"nx":28,"ny":28,"refTime":"2023-10-23T09:00:00:Z","depth":"0","parameterNumber":2,"parameterNumberName":"U-component_of_CURRENTS"},"data":[0,0,0,0,0,0,0,0,0,0,0,0,0,0,0,0,0,0,0,0,0,0,0,0,0,0,0,0,0,0,0,0,0,0,0,0,0,0,0,0,0,0,0,0,0,0,0,0,0,0,0,0,0,0,0,0,0,0,-0.2267,-0.2268,0,-0.2358,-0.2359,-0.236,-0.2395,-0.2394,-0.2394,-0.2393,-0.2389,-0.239,-0.239,0,0,0,0,0,0,0,0,0,0,0,0,0,-0.2125,-0.2128,-0.2267,-0.2268,-0.2269,-0.2358,-0.2359,-0.2361,-0.2395,-0.2394,-0.2394,-0.2393,-0.2389,-0.239,-0.239,0,0,0,0,0,0,0,0,0,0,0,0,0,-0.2201,-0.2129,-0.2267,-0.2295,-0.2298,-0.2357,-0.2359,-0.2361,-0.2395,-0.2394,-0.2394,-0.2393,-0.2389,-0.239,-0.239,-0.2409,0,0,-0.2392,-0.2392,0,0,0,0,0,0,0,0,-0.2196,-0.2206,-0.229,-0.2293,-0.2297,-0.2362,-0.2308,-0.2371,-0.2395,-0.2361,-0.2393,-0.2392,-0.237,-0.2372,-0.2396,-0.2409,-0.2408,-0.2392,-0.2392,-0.2392,-0.2393,0,0,0,0,0,0,0,-0.2191,-0.2203,-0.2306,-0.2291,-0.2295,-0.2303,-0.2313,-0.2321,-0.2369,-0.2364,-0.2366,-0.2372,-0.2372,-0.2396,-0.2396,-0.2408,-0.2392,-0.2392,-0.2393,-0.2393,-0.2424,-0.2425,0,0,0,0,0,0,-0.2176,-0.2198,-0.2303,-0.2308,-0.2241,-0.2306,-0.2318,-0.2344,-0.2371,-0.2375,-0.2373,-0.2373,-0.2395,-0.2395,-0.2396,-0.2387,-0.2392,-0.2393,-0.2393,-0.2424,-0.2424,-0.2425,0,0,0,0,0,0,-0.2173,-0.2186,-0.2299,-0.2251,-0.2266,-0.2309,-0.2338,-0.2346,-0.2365,-0.2378,-0.238,-0.2382,-0.2395,-0.2395,-0.2397,-0.2388,-0.2393,-0.2394,-0.2423,-0.2424,-0.2424,-0.2389,0,0,0,0,0,0,-0.2169,-0.2185,-0.2198,-0.2251,-0.2268,-0.2331,-0.2339,-0.2348,-0.2369,-0.237,-0.2387,-0.2387,-0.2394,-0.2397,-0.2398,-0.2389,-0.2394,-0.2422,-0.2423,-0.2424,-0.239,-0.2389,-0.2388,0,0,0,0,0,-0.2164,-0.2182,-0.2199,-0.2211,-0.2287,-0.2331,-0.2341,-0.237,-0.2369,-0.2383,-0.2389,-0.2386,-0.2403,-0.2397,-0.2399,-0.2389,-0.2422,-0.2423,-0.2424,-0.239,-0.2389,-0.2388,0,0,0,0,0,0,-0.2123,-0.2189,-0.2208,-0.2245,-0.2283,-0.2336,-0.2347,-0.2367,-0.2387,-0.2378,-0.239,-0.2391,-0.2391,-0.2401,-0.2394,-0.2405,-0.2413,-0.2415,-0.2387,-0.2386,-0.2385,-0.2357,-0.2395,0,0,0,0,0,-0.2122,-0.2149,-0.2213,-0.2233,-0.2257,-0.2301,-0.2321,-0.2341,-0.2365,-0.2375,-0.239,-0.2398,-0.2401,-0.24,-0.2412,-0.2414,-0.2379,-0.2412,-0.2411,-0.241,-0.2391,-0.2318,-0.2306,-0.2428,-0.2428,-0.2428,0,0,-0.2104,-0.2144,-0.2157,-0.2225,-0.2256,-0.2286,-0.2312,-0.2338,-0.235,-0.2368,-0.2383,-0.2395,-0.2403,-0.2408,-0.2409,-0.241,-0.2362,-0.2412,-0.241,-0.2391,-0.2317,-0.2305,-0.2293,-0.2429,-0.2429,-0.2429,0,0,-0.2083,-0.2126,-0.2147,-0.2185,-0.2234,-0.2264,-0.2269,-0.2327,-0.2341,-0.2362,-0.2371,-0.2367,-0.2397,-0.2389,-0.2388,-0.2387,-0.2361,-0.2409,-0.2374,-0.2303,-0.2291,-0.228,-0.2229,-0.2214,-0.2405,-0.2405,-0.2405,0,-0.2056,-0.21,-0.2155,-0.2187,-0.2204,-0.225,-0.2268,-0.2296,-0.2342,-0.234,-0.2358,-0.2368,-0.2377,-0.2351,-0.2361,-0.2378,-0.2346,-0.2374,-0.2296,-0.2285,-0.2274,-0.2225,-0.2208,-0.2403,-0.2403,-0.2403,-0.2404,0,-0.2055,-0.2093,-0.2104,-0.216,-0.2188,-0.2205,-0.2254,-0.2272,-0.229,-0.2311,-0.2303,-0.2317,-0.2315,-0.2327,-0.2346,-0.2288,-0.2294,-0.2301,-0.2288,-0.2258,-0.221,-0.2193,-0.2401,-0.2401,-0.2402,-0.2402,0,0,-0.1973,-0.2083,-0.2081,-0.211,-0.2172,-0.2193,-0.2206,-0.2229,-0.2221,-0.2254,-0.2234,-0.2244,-0.225,-0.225,-0.2266,-0.2215,-0.2125,-0.2232,-0.2229,-0.2162,-0.1978,-0.1977,-0.1959,-0.2117,-0.2114,-0.2111,-0.1978,0,-0.1946,-0.2003,-0.2056,-0.2081,-0.2117,-0.2157,-0.2165,-0.2185,-0.2203,-0.2203,-0.2194,-0.2194,-0.2222,-0.2221,-0.2169,-0.2149,-0.2079,-0.2161,-0.2034,-0.203,-0.2014,-0.1937,-0.195,-0.1831,-0.1961,-0.1958,-0.1956,0,-0.1909,-0.1964,-0.1998,-0.2062,-0.2074,-0.2087,-0.2092,-0.211,-0.2117,-0.2129,-0.2114,-0.2129,-0.2084,-0.2108,-0.1996,-0.2052,-0.2002,-0.1973,-0.1967,-0.196,-0.1996,-0.1882,-0.1796,-0.1824,-0.193,-0.1932,-0.1934,0,-0.1819,-0.1903,-0.1926,-0.195,-0.2034,-0.2033,-0.2058,-0.2076,-0.2079,-0.2083,-0.2077,-0.2037,-0.201,-0.1941,-0.1907,-0.1943,-0.1774,-0.1811,-0.1747,-0.1748,-0.1728,-0.1732,-0.1631,-0.1681,-0.1682,-0.1682,-0.1683,0,-0.176,-0.1776,-0.1892,-0.1906,-0.191,-0.1987,-0.1969,-0.1991,-0.2011,-0.1992,-0.2033,-0.1993,-0.1963,-0.1891,-0.1857,-0.1747,-0.172,-0.1708,-0.1695,-0.1722,-0.1727,-0.1729,-0.1748,-0.1677,-0.1678,-0.1679,-0.168,0,-0.165,-0.1731,-0.176,-0.1849,-0.1872,-0.1869,-0.1923,-0.1915,-0.1955,-0.1928,-0.1929,-0.1927,-0.1847,-0.1811,-0.1694,-0.1671,-0.1566,-0.1543,-0.1593,-0.1588,-0.1584,-0.1601,-0.1426,-0.1392,-0.1449,-0.1448,-0.1447,0,-0.1606,-0.1616,-0.1691,-0.1699,-0.1738,-0.1767,-0.178,-0.1859,-0.1865,-0.1874,-0.1847,-0.1796,-0.1751,-0.1613,-0.1566,-0.1482,-0.1483,-0.143,-0.1491,-0.1549,-0.1558,-0.1554,-0.154,-0.1456,-0.1456,-0.1455,-0.1454,0,-0.1506,-0.1519,-0.1541,-0.157,-0.1592,-0.1625,-0.1667,-0.1673,-0.1747,-0.1747,-0.1721,-0.1697,-0.1613,-0.1558,-0.1478,-0.1422,-0.1441,-0.1414,-0.144,-0.151,-0.1528,-0.1504,-0.1603,-0.1449,-0.1449,-0.145,-0.145,-0.145,-0.1397,-0.138,-0.1405,-0.1416,-0.1448,-0.1479,-0.147,-0.1538,-0.1552,-0.1566,-0.1591,-0.1586,-0.1585,-0.1498,-0.1435,-0.1398,-0.1369,-0.1396,-0.1398,-0.1378,-0.1379,-0.1476,-0.1337,-0.1337,-0.1337,-0.1337,-0.1337,0,-0.1272,-0.127,-0.1263,-0.1285,-0.1277,-0.1343,-0.1384,-0.1379,-0.138,-0.1453,-0.146,-0.1547,-0.1521,-0.1515,-0.149,-0.1432,-0.1385,-0.1388,-0.1399,-0.1372,-0.1427,-0.1468,-0.1392,-0.1392,-0.1392,-0.1392,-0.1392,-0.1392,-0.1204,-0.1159,-0.1166,-0.1122,-0.1135,-0.112,-0.1126,-0.1144,-0.1195,-0.1257,-0.136,-0.1467,-0.1493,-0.1628,-0.1575,-0.1494,-0.1446,-0.1389,-0.1356,-0.1456,-0.1458,-0.1461,-0.1504,-0.1436,-0.1436,-0.1302,-0.1301,-0.1301]},{"header":{"parameterUnit":"m.s-1","parameterCategory":2,"la1":30.2991,"la2":30.254,"lo1":-89.0895,"lo2":-89.0444,"dy":0.0017,"dx":0.0017,"nx":28,"ny":28,"refTime":"2023-10-23T09:00:00:Z","depth":"0","parameterNumber":3,"parameterNumberName":"V-component_of_CURRENTS"},"data":[0,0,0,0,0,0,0,0,0,0,0,0,0,0,0,0,0,0,0,0,0,0,0,0,0,0,0,0,0,0,0,0,0,0,0,0,0,0,0,0,0,0,0,0,0,0,0,0,0,0,0,0,0,0,0,0,0,0,-0.0196,-0.0195,0,-0.0093,-0.0091,-0.009,-0.0012,-0.0011,-0.0011,-0.001,0.0107,0.0109,0.0112,0,0,0,0,0,0,0,0,0,0,0,0,0,-0.0259,-0.0259,-0.0196,-0.0195,-0.0194,-0.0093,-0.0091,-0.009,-0.0012,-0.0011,-0.0011,-0.001,0.0106,0.0109,0.0112,0,0,0,0,0,0,0,0,0,0,0,0,0,-0.02,-0.0258,-0.0196,-0.0144,-0.0139,-0.0093,-0.0091,-0.0089,-0.0012,-0.0011,-0.001,-0.001,0.0105,0.0109,0.0112,0.012,0,0,0.0124,0.0126,0,0,0,0,0,0,0,0,-0.0203,-0.0197,-0.0153,-0.0148,-0.0141,-0.0066,-0.0071,-0.0019,-0.0012,-0.0058,-0.001,-0.0009,0.0048,0.0057,0.0077,0.0126,0.0131,0.0125,0.0127,0.0129,0.013,0,0,0,0,0,0,0,-0.0208,-0.0201,-0.0153,-0.0152,-0.0145,-0.0103,-0.0094,-0.006,-0.0009,-0.0054,-0.0049,-0.004,0.0052,0.0073,0.008,0.0133,0.0125,0.0128,0.0131,0.0132,0.0213,0.0212,0,0,0,0,0,0,-0.0229,-0.0205,-0.0156,-0.015,-0.0173,-0.0103,-0.0093,-0.0089,-0.0009,0.0003,-0.0041,-0.0037,0.0066,0.0076,0.0085,0.0113,0.0129,0.0132,0.0135,0.0213,0.0213,0.0212,0,0,0,0,0,0,-0.023,-0.0225,-0.0161,-0.0176,-0.0165,-0.0104,-0.01,-0.0088,-0.0068,-0.0,0.0013,-0.0034,0.0067,0.0079,0.011,0.0118,0.0134,0.0138,0.0213,0.0213,0.0212,0.0161,0,0,0,0,0,0,-0.0233,-0.0227,-0.0231,-0.0178,-0.0165,-0.0141,-0.01,-0.0086,-0.0065,-0.0059,0.001,0.0022,0.0069,0.0104,0.0114,0.0123,0.0141,0.0213,0.0213,0.0213,0.0163,0.0159,0.0155,0,0,0,0,0,-0.0235,-0.0246,-0.0232,-0.0226,-0.0173,-0.0142,-0.0131,-0.0083,-0.0066,-0.0061,-0.0016,0.002,0.0109,0.0107,0.0119,0.0129,0.0214,0.0213,0.0213,0.0164,0.0159,0.0155,0,0,0,0,0,0,-0.0276,-0.0237,-0.0221,-0.0219,-0.0187,-0.0129,-0.0123,-0.0093,-0.0054,-0.005,0.0014,0.0029,0.0058,0.0095,0.009,0.0151,0.0169,0.0171,0.0128,0.0124,0.012,0.013,0.0144,0,0,0,0,0,-0.029,-0.0287,-0.0243,-0.0243,-0.0232,-0.0182,-0.0164,-0.0134,-0.0092,-0.0074,-0.0023,0.0026,0.0065,0.0094,0.0131,0.0162,0.0196,0.0177,0.0173,0.017,0.0185,0.0247,0.0251,0.0211,0.0211,0.0211,0,0,-0.0307,-0.0285,-0.0284,-0.0252,-0.0225,-0.0207,-0.0168,-0.0151,-0.0125,-0.0069,-0.0027,0.0008,0.0066,0.0103,0.0121,0.0137,0.019,0.0169,0.0166,0.0184,0.0247,0.0251,0.0255,0.0211,0.0211,0.0211,0,0,-0.0337,-0.0323,-0.0327,-0.0304,-0.0271,-0.0237,-0.0238,-0.0185,-0.0152,-0.0118,-0.0069,-0.0031,0.003,0.0084,0.0116,0.0112,0.016,0.012,0.0123,0.0181,0.0186,0.019,0.0197,0.0203,0.0129,0.0128,0.0128,0,-0.0358,-0.0355,-0.0324,-0.0318,-0.0299,-0.0255,-0.0248,-0.0211,-0.0151,-0.0117,-0.0114,-0.0011,0.0027,0.0096,0.0095,0.0107,0.0132,0.0133,0.0177,0.0183,0.0188,0.0195,0.0202,0.0126,0.0126,0.0126,0.0127,0,-0.0382,-0.0379,-0.0383,-0.0356,-0.0332,-0.0326,-0.027,-0.0243,-0.0207,-0.0154,-0.0092,-0.0039,0.0033,0.0043,0.0069,0.013,0.0129,0.0156,0.0189,0.0189,0.0196,0.0204,0.0122,0.0123,0.0124,0.0125,0,0,-0.0428,-0.0405,-0.0406,-0.0394,-0.0352,-0.0332,-0.0297,-0.0238,-0.0199,-0.0146,-0.0082,-0.0025,0.0015,0.0053,0.0094,0.0145,0.0178,0.0165,0.0169,0.0171,0.0275,0.0256,0.0263,0.0218,0.022,0.0222,0.0249,0,-0.0456,-0.046,-0.0429,-0.0419,-0.0415,-0.0359,-0.0323,-0.0261,-0.0201,-0.0131,-0.0059,0.0005,0.0018,0.005,0.0103,0.0174,0.0204,0.0166,0.0277,0.0279,0.0264,0.0275,0.0316,0.0344,0.0257,0.0258,0.0259,0,-0.0484,-0.0482,-0.0486,-0.0443,-0.0433,-0.0413,-0.0338,-0.0296,-0.0189,-0.014,-0.0059,0.0006,0.0093,0.0096,0.0214,0.0191,0.0224,0.0265,0.0268,0.0285,0.0278,0.034,0.0363,0.0463,0.0272,0.0271,0.027,0,-0.0529,-0.0512,-0.0516,-0.0505,-0.0455,-0.0433,-0.0396,-0.0301,-0.0247,-0.0138,-0.0083,0.0025,0.0086,0.0164,0.0232,0.0237,0.0345,0.0366,0.037,0.0367,0.0443,0.0444,0.0585,0.0435,0.0435,0.0435,0.0435,0,-0.0567,-0.0567,-0.0541,-0.0543,-0.0528,-0.0471,-0.0427,-0.0369,-0.0267,-0.0194,-0.009,-0.0021,0.0111,0.019,0.0242,0.0323,0.0351,0.0377,0.0389,0.0419,0.0417,0.0541,0.0582,0.0436,0.0436,0.0435,0.0435,0,-0.0614,-0.0603,-0.0603,-0.0567,-0.0553,-0.054,-0.046,-0.0413,-0.032,-0.0221,-0.0184,-0.0037,0.0067,0.0164,0.0286,0.0333,0.0465,0.0414,0.0409,0.0421,0.0537,0.0572,0.0709,0.0748,0.0456,0.0456,0.0456,0,-0.0637,-0.0648,-0.0631,-0.0627,-0.0613,-0.0583,-0.055,-0.0457,-0.0389,-0.0238,-0.0182,-0.0059,0.0028,0.0184,0.0302,0.0395,0.0458,0.0468,0.0496,0.0558,0.0608,0.0624,0.0647,0.0557,0.0558,0.0559,0.0559,0,-0.0675,-0.0673,-0.0673,-0.0675,-0.0654,-0.0622,-0.0561,-0.0522,-0.0396,-0.0325,-0.0218,-0.0146,0.0045,0.0203,0.0333,0.0389,0.0558,0.0482,0.0587,0.0734,0.0728,0.0764,0.048,0.0565,0.0565,0.0564,0.0564,0.0564,-0.0695,-0.071,-0.071,-0.0707,-0.0688,-0.0651,-0.0632,-0.0559,-0.0493,-0.0367,-0.0278,-0.0156,0.0136,0.035,0.0417,0.0628,0.06,0.0704,0.0746,0.0758,0.08,0.049,0.0565,0.0564,0.0564,0.0563,0.0563,0,-0.071,-0.0722,-0.073,-0.0725,-0.0713,-0.0687,-0.0624,-0.0599,-0.0555,-0.0424,-0.0336,-0.0017,0.0242,0.0492,0.0809,0.091,0.0929,0.0955,0.1029,0.1043,0.0821,0.0833,0.0923,0.0922,0.0922,0.0922,0.0922,0.0922,-0.0713,-0.0732,-0.074,-0.0741,-0.0735,-0.0716,-0.0692,-0.0659,-0.0572,-0.0415,-0.0232,-0.0063,0.0347,0.0921,0.1204,0.1203,0.1296,0.1272,0.1299,0.1195,0.1176,0.1158,0.1181,0.1342,0.1343,0.1525,0.1528,0.1529]}],[{"header":{"parameterUnit":"m.s-1","parameterCategory":2,"la1":30.2991,"la2":30.254,"lo1":-89.0895,"lo2":-89.0444,"dy":0.0017,"dx":0.0017,"nx":28,"ny":28,"refTime":"2023-10-23T09:00:00:Z","depth":"2","parameterNumber":2,"parameterNumberName":"U-component_of_CURRENTS"},"data":[0,0,0,0,0,0,0,0,0,0,0,0,0,0,0,0,0,0,0,0,0,0,0,0,0,0,0,0,0,0,0,0,0,0,0,0,0,0,0,0,0,0,0,0,0,0,0,0,0,0,0,0,0,0,0,0,0,0,-0.2012,-0.2012,0,-0.2106,-0.2108,-0.2109,-0.218,-0.2179,-0.2179,-0.2179,-0.2186,-0.2186,-0.2186,0,0,0,0,0,0,0,0,0,0,0,0,0,-0.1913,-0.1915,-0.2012,-0.2013,-0.2013,-0.2106,-0.2108,-0.211,-0.218,-0.2179,-0.2179,-0.2179,-0.2186,-0.2186,-0.2186,0,0,0,0,0,0,0,0,0,0,0,0,0,-0.1984,-0.1916,-0.2012,-0.2053,-0.2057,-0.2105,-0.2108,-0.211,-0.218,-0.2179,-0.2179,-0.2179,-0.2186,-0.2186,-0.2186,-0.2193,0,0,-0.2188,-0.2188,0,0,0,0,0,0,0,0,-0.198,-0.1989,-0.2047,-0.205,-0.2055,-0.2124,-0.2075,-0.2131,-0.218,-0.2142,-0.2179,-0.2179,-0.2152,-0.2155,-0.2186,-0.2193,-0.2193,-0.2188,-0.2188,-0.2188,-0.2188,0,0,0,0,0,0,0,-0.1975,-0.1985,-0.2058,-0.2047,-0.2052,-0.2073,-0.2083,-0.2087,-0.2151,-0.2145,-0.2148,-0.2146,-0.2154,-0.2185,-0.2186,-0.2193,-0.2188,-0.2188,-0.2188,-0.2189,-0.2223,-0.2224,0,0,0,0,0,0,-0.1946,-0.198,-0.2054,-0.206,-0.2007,-0.2074,-0.2086,-0.2108,-0.2153,-0.2158,-0.2146,-0.2149,-0.2185,-0.2186,-0.2186,-0.2192,-0.2188,-0.2189,-0.2189,-0.2222,-0.2223,-0.2224,0,0,0,0,0,0,-0.1944,-0.1953,-0.205,-0.2014,-0.2027,-0.2075,-0.21,-0.211,-0.2145,-0.2153,-0.2158,-0.2168,-0.2185,-0.2186,-0.219,-0.2192,-0.2189,-0.2189,-0.2222,-0.2223,-0.2224,-0.2205,0,0,0,0,0,0,-0.1942,-0.1953,-0.1967,-0.2013,-0.2027,-0.2081,-0.2099,-0.2112,-0.2139,-0.2144,-0.2174,-0.2175,-0.2185,-0.2189,-0.219,-0.2193,-0.219,-0.2221,-0.2222,-0.2223,-0.2205,-0.2205,-0.2205,0,0,0,0,0,-0.1938,-0.1955,-0.1968,-0.1976,-0.2044,-0.208,-0.2092,-0.2129,-0.214,-0.216,-0.2173,-0.2174,-0.2198,-0.219,-0.2191,-0.2194,-0.222,-0.2222,-0.2223,-0.2204,-0.2205,-0.2205,0,0,0,0,0,0,-0.1917,-0.1964,-0.198,-0.201,-0.204,-0.2089,-0.2108,-0.2129,-0.2162,-0.2163,-0.2176,-0.2178,-0.2186,-0.2194,-0.2184,-0.221,-0.2212,-0.2214,-0.2197,-0.2198,-0.2198,-0.217,-0.219,0,0,0,0,0,-0.1916,-0.194,-0.1984,-0.2002,-0.2023,-0.2066,-0.2087,-0.211,-0.2137,-0.2154,-0.2176,-0.2191,-0.2196,-0.2198,-0.2212,-0.2218,-0.218,-0.2225,-0.2225,-0.2225,-0.2205,-0.2133,-0.2123,-0.2229,-0.2229,-0.2229,0,0,-0.1905,-0.1933,-0.1945,-0.1997,-0.203,-0.2056,-0.2082,-0.2111,-0.2123,-0.2144,-0.2176,-0.2192,-0.2199,-0.2212,-0.2216,-0.2215,-0.2181,-0.2227,-0.2227,-0.2206,-0.2133,-0.2122,-0.2112,-0.223,-0.223,-0.2229,0,0,-0.189,-0.193,-0.1948,-0.1979,-0.2019,-0.2047,-0.2052,-0.211,-0.2132,-0.2154,-0.2171,-0.2177,-0.2208,-0.2207,-0.2206,-0.2212,-0.2186,-0.2238,-0.2212,-0.2143,-0.2132,-0.2122,-0.2075,-0.206,-0.2236,-0.2236,-0.2236,0,-0.1872,-0.1908,-0.1955,-0.1983,-0.1998,-0.2039,-0.2057,-0.2085,-0.2133,-0.2136,-0.2158,-0.2182,-0.2195,-0.2175,-0.2193,-0.2208,-0.2175,-0.2206,-0.2138,-0.2127,-0.2117,-0.2071,-0.2056,-0.2235,-0.2235,-0.2236,-0.2236,0,-0.1871,-0.1906,-0.1918,-0.1966,-0.1993,-0.2011,-0.205,-0.2075,-0.21,-0.2121,-0.2125,-0.2144,-0.2151,-0.2169,-0.2184,-0.2138,-0.2141,-0.2144,-0.2126,-0.2105,-0.2059,-0.2043,-0.2234,-0.2235,-0.2235,-0.2235,0,0,-0.1802,-0.1899,-0.1899,-0.1927,-0.1985,-0.2002,-0.202,-0.2042,-0.2038,-0.2078,-0.2065,-0.2087,-0.2101,-0.2101,-0.2121,-0.2075,-0.1996,-0.2088,-0.2084,-0.2022,-0.1853,-0.185,-0.1832,-0.1984,-0.1981,-0.1979,-0.1853,0,-0.178,-0.1829,-0.1877,-0.1905,-0.1939,-0.1979,-0.1987,-0.2009,-0.2029,-0.2033,-0.2031,-0.2037,-0.2072,-0.2079,-0.2034,-0.2015,-0.1952,-0.203,-0.1899,-0.1895,-0.1877,-0.1812,-0.1716,-0.1595,-0.1837,-0.1835,-0.1833,0,-0.1748,-0.1795,-0.1828,-0.189,-0.1903,-0.1918,-0.1931,-0.1947,-0.1955,-0.1969,-0.1965,-0.198,-0.1947,-0.1971,-0.1874,-0.1926,-0.1879,-0.1851,-0.1845,-0.183,-0.1861,-0.1655,-0.1557,-0.1806,-0.1808,-0.181,-0.1812,0,-0.1669,-0.1746,-0.1768,-0.1791,-0.1868,-0.1875,-0.1903,-0.1924,-0.1926,-0.193,-0.1927,-0.1896,-0.1876,-0.1812,-0.1786,-0.182,-0.1661,-0.1695,-0.1633,-0.1634,-0.1518,-0.1513,-0.1572,-0.1573,-0.1573,-0.1573,-0.1574,0,-0.1618,-0.1635,-0.1738,-0.1752,-0.1758,-0.1835,-0.1824,-0.1848,-0.1868,-0.1848,-0.1891,-0.1854,-0.1831,-0.1764,-0.1735,-0.1635,-0.1608,-0.1597,-0.1583,-0.1515,-0.1512,-0.1673,-0.1686,-0.1568,-0.157,-0.157,-0.1571,0,-0.1522,-0.1593,-0.1618,-0.1701,-0.1725,-0.1725,-0.1783,-0.1775,-0.1817,-0.179,-0.1791,-0.1791,-0.172,-0.1689,-0.1579,-0.1559,-0.1476,-0.1438,-0.1379,-0.1361,-0.1511,-0.1525,-0.1352,-0.135,-0.1349,-0.1348,-0.1347,0,-0.148,-0.1488,-0.1554,-0.156,-0.1599,-0.1631,-0.1645,-0.1723,-0.1726,-0.1738,-0.171,-0.1666,-0.1622,-0.1494,-0.143,-0.1348,-0.1395,-0.1216,-0.126,-0.1475,-0.1479,-0.1496,-0.1511,-0.1101,-0.1099,-0.1096,-0.1094,0,-0.1387,-0.1399,-0.1417,-0.1439,-0.1462,-0.1489,-0.1533,-0.1535,-0.1606,-0.1606,-0.158,-0.1557,-0.1464,-0.1347,-0.1267,-0.1206,-0.1238,-0.1169,-0.134,-0.12,-0.1236,-0.1242,-0.1265,-0.1074,-0.1076,-0.1077,-0.1078,-0.1079,-0.1286,-0.1269,-0.1287,-0.1295,-0.1323,-0.1347,-0.1339,-0.1393,-0.1401,-0.1388,-0.1422,-0.136,-0.1321,-0.1164,-0.1081,-0.1015,-0.1103,-0.1058,-0.1065,-0.1075,-0.1096,-0.113,-0.0952,-0.0953,-0.0954,-0.0955,-0.0956,0,-0.1162,-0.1163,-0.1154,-0.1169,-0.1152,-0.1221,-0.1253,-0.1224,-0.1209,-0.1224,-0.1208,-0.1067,-0.1014,-0.0979,-0.086,-0.084,-0.0827,-0.0798,-0.0788,-0.0809,-0.0827,-0.0837,-0.0623,-0.0622,-0.0621,-0.062,0,0,-0.1094,-0.1046,-0.1052,-0.1,-0.1016,-0.0986,-0.0988,-0.0961,-0.0955,-0.0893,-0.0878,-0.096,-0.0971,-0.0809,-0.0759,-0.0678,-0.0733,-0.0637,-0.0904,-0.0914,-0.0932,-0.0975,-0.1013,0,0,0,0,0]},{"header":{"parameterUnit":"m.s-1","parameterCategory":2,"la1":30.2991,"la2":30.254,"lo1":-89.0895,"lo2":-89.0444,"dy":0.0017,"dx":0.0017,"nx":28,"ny":28,"refTime":"2023-10-23T09:00:00:Z","depth":"2","parameterNumber":3,"parameterNumberName":"V-component_of_CURRENTS"},"data":[0,0,0,0,0,0,0,0,0,0,0,0,0,0,0,0,0,0,0,0,0,0,0,0,0,0,0,0,0,0,0,0,0,0,0,0,0,0,0,0,0,0,0,0,0,0,0,0,0,0,0,0,0,0,0,0,0,0,-0.0213,-0.0212,0,-0.0118,-0.0117,-0.0115,-0.0042,-0.0042,-0.0041,-0.004,0.007,0.0073,0.0075,0,0,0,0,0,0,0,0,0,0,0,0,0,-0.0267,-0.0266,-0.0213,-0.0212,-0.0211,-0.0118,-0.0117,-0.0115,-0.0042,-0.0041,-0.0041,-0.004,0.0069,0.0072,0.0075,0,0,0,0,0,0,0,0,0,0,0,0,0,-0.0213,-0.0266,-0.0213,-0.0165,-0.0159,-0.0118,-0.0116,-0.0115,-0.0042,-0.0041,-0.0041,-0.004,0.0068,0.0072,0.0076,0.0082,0,0,0.0087,0.0088,0,0,0,0,0,0,0,0,-0.0217,-0.0211,-0.0173,-0.0168,-0.0162,-0.0092,-0.0095,-0.0049,-0.0042,-0.0085,-0.004,-0.0039,0.0016,0.0024,0.0042,0.0087,0.0092,0.0087,0.0089,0.0091,0.0092,0,0,0,0,0,0,0,-0.022,-0.0215,-0.0174,-0.0172,-0.0165,-0.0125,-0.0117,-0.0085,-0.0039,-0.0081,-0.0076,-0.0068,0.0019,0.0038,0.0045,0.0093,0.0087,0.009,0.0093,0.0094,0.0169,0.0169,0,0,0,0,0,0,-0.024,-0.0219,-0.0177,-0.0171,-0.019,-0.0125,-0.0116,-0.0114,-0.0039,-0.0028,-0.0069,-0.0065,0.0031,0.0041,0.0049,0.0077,0.0091,0.0094,0.0096,0.0169,0.0169,0.0168,0,0,0,0,0,0,-0.0241,-0.0237,-0.0181,-0.0193,-0.0184,-0.0126,-0.0124,-0.0113,-0.0094,-0.0031,-0.0018,-0.0062,0.0032,0.0044,0.0073,0.0081,0.0096,0.0099,0.0169,0.0169,0.0169,0.0122,0,0,0,0,0,0,-0.0243,-0.0239,-0.0242,-0.0195,-0.0184,-0.0163,-0.0124,-0.0112,-0.0091,-0.0085,-0.0021,-0.0009,0.0034,0.0067,0.0077,0.0086,0.0102,0.0169,0.0169,0.0169,0.0124,0.012,0.0117,0,0,0,0,0,-0.0246,-0.0255,-0.0243,-0.0238,-0.0192,-0.0164,-0.0154,-0.0109,-0.0092,-0.0088,-0.0046,-0.0011,0.0072,0.007,0.0081,0.0092,0.017,0.0169,0.0169,0.0125,0.0121,0.0117,0,0,0,0,0,0,-0.0282,-0.0248,-0.0233,-0.0233,-0.0205,-0.0152,-0.0146,-0.0118,-0.0081,-0.0077,-0.0017,-0.0003,0.0025,0.0059,0.0055,0.0111,0.0128,0.013,0.0091,0.0087,0.0084,0.0092,0.0105,0,0,0,0,0,-0.0294,-0.0292,-0.0254,-0.0255,-0.0245,-0.0199,-0.0183,-0.0155,-0.0117,-0.01,-0.0052,-0.0006,0.0031,0.0058,0.0092,0.0121,0.0154,0.0136,0.0133,0.013,0.0143,0.0203,0.0207,0.0167,0.0167,0.0167,0,0,-0.031,-0.0291,-0.029,-0.0263,-0.0238,-0.0224,-0.0187,-0.0171,-0.0149,-0.0095,-0.0056,-0.0022,0.0032,0.0067,0.0084,0.0099,0.015,0.0129,0.0126,0.0142,0.0203,0.0207,0.0211,0.0167,0.0167,0.0167,0,0,-0.0339,-0.0326,-0.0331,-0.0311,-0.0282,-0.0251,-0.0252,-0.0204,-0.0174,-0.0143,-0.0096,-0.0058,-0.0002,0.005,0.0079,0.0076,0.0122,0.0083,0.0086,0.0143,0.0147,0.0152,0.0161,0.0166,0.0092,0.0092,0.0092,0,-0.0358,-0.0358,-0.0329,-0.0326,-0.0308,-0.0268,-0.0264,-0.023,-0.0175,-0.0143,-0.0139,-0.004,-0.0004,0.006,0.006,0.0071,0.0096,0.0096,0.014,0.0145,0.015,0.0159,0.0166,0.009,0.009,0.009,0.009,0,-0.0383,-0.0383,-0.0387,-0.0366,-0.0343,-0.0339,-0.0289,-0.0263,-0.0228,-0.018,-0.012,-0.0068,0.0,0.0011,0.0036,0.0095,0.0094,0.0119,0.0151,0.0152,0.016,0.0168,0.0086,0.0087,0.0088,0.0088,0,0,-0.0427,-0.0408,-0.041,-0.0401,-0.0364,-0.0347,-0.0316,-0.0262,-0.0226,-0.0175,-0.0116,-0.0059,-0.0018,0.0018,0.0058,0.0108,0.0144,0.0128,0.0132,0.0137,0.0239,0.0222,0.0229,0.0182,0.0184,0.0186,0.0216,0,-0.0455,-0.0463,-0.0436,-0.0431,-0.0429,-0.0376,-0.0344,-0.0287,-0.0232,-0.0167,-0.0096,-0.0035,-0.0017,0.0014,0.0068,0.0138,0.0169,0.0131,0.0239,0.0241,0.0228,0.0241,0.0218,0.0244,0.0224,0.0225,0.0226,0,-0.0484,-0.0485,-0.0493,-0.0455,-0.0447,-0.0431,-0.0361,-0.0324,-0.0225,-0.0179,-0.01,-0.0038,0.0049,0.0055,0.0175,0.0152,0.0187,0.0229,0.0232,0.0247,0.0242,0.0249,0.026,0.024,0.0239,0.0238,0.0237,0,-0.0527,-0.0517,-0.0524,-0.0515,-0.0471,-0.0451,-0.0417,-0.0329,-0.0279,-0.0179,-0.0126,-0.0022,0.0039,0.0119,0.0192,0.0197,0.0306,0.0326,0.0334,0.0331,0.0351,0.0347,0.0395,0.0395,0.0395,0.0395,0.0395,0,-0.0566,-0.0569,-0.0547,-0.0551,-0.054,-0.0488,-0.0448,-0.0395,-0.0301,-0.0233,-0.0133,-0.0067,0.0064,0.0143,0.0199,0.0285,0.0311,0.034,0.0353,0.0328,0.0322,0.036,0.0355,0.0396,0.0396,0.0396,0.0396,0,-0.0612,-0.0603,-0.0607,-0.0576,-0.0564,-0.0554,-0.0481,-0.0438,-0.0351,-0.0259,-0.0224,-0.0083,0.0024,0.0122,0.0245,0.0293,0.0372,0.038,0.0313,0.0318,0.0353,0.0345,0.0424,0.0424,0.0424,0.0424,0.0424,0,-0.0635,-0.0647,-0.0634,-0.0632,-0.0621,-0.0596,-0.0566,-0.048,-0.0419,-0.0274,-0.0223,-0.01,-0.0014,0.0145,0.0252,0.0347,0.0351,0.0371,0.0389,0.0359,0.0363,0.0356,0.0348,0.0376,0.0376,0.0376,0.0375,0,-0.0674,-0.0672,-0.0674,-0.0679,-0.0662,-0.0635,-0.058,-0.0545,-0.0427,-0.0358,-0.0254,-0.0182,-0.0004,0.0118,0.0246,0.0298,0.0365,0.0368,0.0386,0.0369,0.0316,0.0319,0.0314,0.0373,0.0373,0.0373,0.0373,0.0373,-0.0694,-0.0709,-0.0711,-0.0711,-0.0696,-0.0664,-0.0648,-0.0581,-0.0519,-0.0399,-0.0315,-0.0206,-0.004,0.0141,0.0246,0.0343,0.0354,0.0382,0.0383,0.0384,0.0369,0.032,0.0371,0.0371,0.0372,0.0372,0.0372,0,-0.0709,-0.0723,-0.0732,-0.073,-0.0722,-0.0699,-0.0642,-0.0618,-0.0575,-0.0466,-0.0382,-0.0224,-0.0058,0.01,0.026,0.0366,0.0367,0.0373,0.0365,0.0367,0.0369,0.0353,0.0351,0.0351,0.0352,0.0352,0,0,-0.0714,-0.0733,-0.0742,-0.0746,-0.0743,-0.0727,-0.0706,-0.0672,-0.0603,-0.0536,-0.0448,-0.0289,-0.0076,0.0037,0.0183,0.0267,0.0281,0.0266,0.0269,0.0243,0.0243,0.0359,0.0336,0,0,0,0,0]}],[{"header":{"parameterUnit":"m.s-1","parameterCategory":2,"la1":30.2991,"la2":30.254,"lo1":-89.0895,"lo2":-89.0444,"dy":0.0017,"dx":0.0017,"nx":28,"ny":28,"refTime":"2023-10-23T09:00:00:Z","depth":"4","parameterNumber":2,"parameterNumberName":"U-component_of_CURRENTS"},"data":[0,0,0,0,0,0,0,0,0,0,0,0,0,0,0,0,0,0,0,0,0,0,0,0,0,0,0,0,0,0,0,0,0,0,0,0,0,0,0,0,0,0,0,0,0,0,0,0,0,0,0,0,0,0,0,0,0,0,-0.0933,-0.0934,0,-0.0952,-0.0952,-0.0952,-0.0954,-0.0954,-0.0954,-0.0955,-0.0992,-0.0993,-0.0993,0,0,0,0,0,0,0,0,0,0,0,0,0,-0.092,-0.0919,-0.0933,-0.0934,-0.0934,-0.0952,-0.0952,-0.0952,-0.0954,-0.0954,-0.0954,-0.0955,-0.0992,-0.0993,-0.0994,0,0,0,0,0,0,0,0,0,0,0,0,0,-0.0927,-0.0919,-0.0933,-0.0941,-0.0942,-0.0952,-0.0952,-0.0952,-0.0954,-0.0954,-0.0954,-0.0955,-0.0991,-0.0992,-0.0994,-0.0996,0,0,-0.0997,-0.0998,0,0,0,0,0,0,0,0,-0.0926,-0.0927,-0.0939,-0.094,-0.0941,-0.0955,-0.0961,-0.0969,-0.0954,-0.0945,-0.0955,-0.0955,-0.0984,-0.0985,-0.0982,-0.0998,-0.0999,-0.0998,-0.0998,-0.0999,-0.0999,0,0,0,0,0,0,0,-0.0926,-0.0926,-0.0937,-0.094,-0.0941,-0.0951,-0.0951,-0.0962,-0.096,-0.0946,-0.0947,-0.0955,-0.0984,-0.0981,-0.0983,-0.1,-0.0998,-0.0999,-0.0999,-0.1,-0.1087,-0.1088,0,0,0,0,0,0,-0.093,-0.0926,-0.0936,-0.0938,-0.0939,-0.0951,-0.0951,-0.0947,-0.0959,-0.0962,-0.0955,-0.0956,-0.0979,-0.0982,-0.0985,-0.1018,-0.0999,-0.1,-0.1001,-0.1085,-0.1087,-0.1089,0,0,0,0,0,0,-0.093,-0.093,-0.0935,-0.0936,-0.0938,-0.0951,-0.0946,-0.0947,-0.0968,-0.0967,-0.097,-0.0978,-0.0979,-0.0983,-0.1024,-0.1019,-0.1001,-0.1002,-0.1083,-0.1086,-0.1088,-0.1066,0,0,0,0,0,0,-0.0929,-0.093,-0.0935,-0.0936,-0.0938,-0.0946,-0.0946,-0.0947,-0.0973,-0.0974,-0.0987,-0.0989,-0.098,-0.1023,-0.1026,-0.102,-0.1003,-0.1081,-0.1084,-0.1087,-0.1065,-0.1068,-0.107,0,0,0,0,0,-0.0928,-0.0931,-0.0934,-0.0937,-0.0942,-0.0947,-0.0948,-0.0956,-0.0974,-0.0977,-0.1005,-0.099,-0.1043,-0.1025,-0.1028,-0.1023,-0.108,-0.1083,-0.1087,-0.1064,-0.1067,-0.107,0,0,0,0,0,0,-0.093,-0.0932,-0.0936,-0.094,-0.0947,-0.0949,-0.096,-0.0973,-0.0996,-0.1009,-0.1013,-0.1017,-0.1048,-0.1055,-0.1035,-0.1062,-0.1058,-0.1062,-0.104,-0.1043,-0.1045,-0.1023,-0.1004,0,0,0,0,0,-0.0933,-0.0937,-0.0939,-0.0947,-0.0951,-0.0963,-0.0972,-0.098,-0.0999,-0.1009,-0.1022,-0.1045,-0.1061,-0.1069,-0.1084,-0.1102,-0.1094,-0.1104,-0.1107,-0.1108,-0.1097,-0.1087,-0.1086,-0.11,-0.11,-0.11,0,0,-0.0943,-0.0942,-0.0948,-0.0949,-0.0956,-0.0956,-0.0968,-0.0987,-0.0995,-0.1012,-0.1037,-0.1057,-0.1073,-0.1088,-0.1101,-0.1093,-0.1105,-0.1113,-0.1113,-0.1101,-0.109,-0.1088,-0.1087,-0.1103,-0.1102,-0.1102,0,0,-0.0948,-0.0956,-0.0955,-0.096,-0.0974,-0.0974,-0.0987,-0.1001,-0.1013,-0.1048,-0.1057,-0.1088,-0.1116,-0.1113,-0.1119,-0.1152,-0.1123,-0.1156,-0.1138,-0.1129,-0.1126,-0.1124,-0.1119,-0.1117,-0.115,-0.115,-0.115,0,-0.0966,-0.0952,-0.0959,-0.0956,-0.0963,-0.0985,-0.0986,-0.0997,-0.1027,-0.1036,-0.1061,-0.1101,-0.1125,-0.1121,-0.1132,-0.1152,-0.1139,-0.1117,-0.1127,-0.1124,-0.1122,-0.1118,-0.1115,-0.1149,-0.1149,-0.1149,-0.1149,0,-0.0964,-0.0957,-0.0961,-0.0957,-0.0963,-0.0974,-0.0985,-0.1006,-0.1038,-0.1044,-0.1071,-0.1102,-0.1124,-0.1132,-0.1144,-0.1133,-0.1126,-0.1131,-0.1106,-0.1118,-0.1115,-0.1112,-0.1148,-0.1148,-0.1148,-0.1149,0,0,-0.0988,-0.0965,-0.0968,-0.0956,-0.0967,-0.0969,-0.0987,-0.0994,-0.1008,-0.1038,-0.1044,-0.1082,-0.1098,-0.1108,-0.1117,-0.1104,-0.1096,-0.1105,-0.1105,-0.1077,-0.1066,-0.1026,-0.1019,-0.1086,-0.1085,-0.1084,-0.1071,0,-0.0986,-0.0965,-0.0963,-0.0954,-0.0937,-0.0963,-0.0974,-0.0989,-0.1013,-0.1026,-0.1044,-0.1068,-0.1086,-0.1106,-0.1093,-0.11,-0.1086,-0.1099,-0.1079,-0.1078,-0.1021,-0.1014,-0.1083,-0.1069,-0.1068,-0.1068,-0.1068,0,-0.0975,-0.0956,-0.0944,-0.0927,-0.093,-0.0938,-0.0958,-0.0979,-0.0996,-0.1021,-0.1031,-0.1046,-0.1048,-0.107,-0.1058,-0.1058,-0.1063,-0.1058,-0.1058,-0.102,-0.1032,-0.1057,-0.1063,-0.1063,-0.1063,-0.1064,-0.1064,0,-0.0959,-0.0939,-0.0927,-0.0927,-0.0923,-0.0935,-0.0951,-0.0974,-0.0977,-0.1019,-0.1017,-0.1029,-0.1042,-0.1036,-0.1055,-0.1053,-0.1027,-0.1034,-0.0994,-0.0993,-0.104,-0.1043,-0.1016,-0.1016,-0.1016,-0.1016,-0.1016,0,-0.0939,-0.0925,-0.0918,-0.0915,-0.0904,-0.0923,-0.0927,-0.0962,-0.0973,-0.0963,-0.1012,-0.1,-0.103,-0.1021,-0.1035,-0.1005,-0.1023,-0.0979,-0.0978,-0.1037,-0.1039,-0.1038,-0.1041,-0.1015,-0.1015,-0.1015,-0.1015,0,-0.0902,-0.0909,-0.0891,-0.0895,-0.0891,-0.0895,-0.0889,-0.0877,-0.0928,-0.0914,-0.0926,-0.0962,-0.0979,-0.0991,-0.1,-0.0979,-0.0968,-0.0956,-0.1019,-0.1025,-0.0941,-0.0944,-0.0895,-0.0893,-0.0892,-0.0891,-0.089,0,-0.0866,-0.0856,-0.0871,-0.0859,-0.0858,-0.0849,-0.0825,-0.0855,-0.0833,-0.0884,-0.0856,-0.0892,-0.0916,-0.0892,-0.093,-0.0939,-0.0937,-0.0922,-0.092,-0.092,-0.0925,-0.093,-0.0934,-0.0887,-0.0887,-0.0886,-0.0886,0,-0.0788,-0.0825,-0.0819,-0.0803,-0.078,-0.0734,-0.0709,-0.0687,-0.0728,-0.0758,-0.0786,-0.0816,-0.0826,-0.0863,-0.0876,-0.0884,-0.0924,-0.0906,-0.0909,-0.0907,-0.0911,-0.0918,-0.0924,-0.0881,-0.0882,-0.0882,-0.0883,0,-0.0734,-0.0724,-0.0739,-0.0715,-0.0692,-0.0633,-0.0632,-0.0601,-0.0595,-0.0666,-0.0681,-0.0757,-0.0819,-0.0834,-0.0847,-0.0851,-0.084,-0.0817,-0.0824,-0.083,-0.0817,-0.0813,-0.0738,0,0,0,0,0,-0.0652,-0.0636,-0.0626,-0.0602,-0.0591,-0.0569,-0.0544,-0.0548,-0.0584,-0.0585,-0.0637,-0.0669,-0.0722,-0.0764,-0.0755,-0.0797,-0.0825,-0.0781,-0.0797,-0.0853,-0.0859,-0.0851,0,0,0,0,0,0,-0.0595,-0.0589,-0.0595,-0.0509,-0.0483,-0.0432,-0.0424,-0.0451,-0.0458,-0.0534,-0.0568,-0.0631,-0.0685,-0.0726,-0.0746,-0.0753,-0.0751,-0.0827,-0.0826,-0.085,-0.0855,-0.086,-0.0853,0,0,0,0,0]},{"header":{"parameterUnit":"m.s-1","parameterCategory":2,"la1":30.2991,"la2":30.254,"lo1":-89.0895,"lo2":-89.0444,"dy":0.0017,"dx":0.0017,"nx":28,"ny":28,"refTime":"2023-10-23T09:00:00:Z","depth":"4","parameterNumber":3,"parameterNumberName":"V-component_of_CURRENTS"},"data":[0,0,0,0,0,0,0,0,0,0,0,0,0,0,0,0,0,0,0,0,0,0,0,0,0,0,0,0,0,0,0,0,0,0,0,0,0,0,0,0,0,0,0,0,0,0,0,0,0,0,0,0,0,0,0,0,0,0,-0.0205,-0.0205,0,-0.0184,-0.0184,-0.0184,-0.0179,-0.0178,-0.0178,-0.0178,-0.0152,-0.0151,-0.0151,0,0,0,0,0,0,0,0,0,0,0,0,0,-0.021,-0.0211,-0.0205,-0.0205,-0.0204,-0.0184,-0.0184,-0.0184,-0.0179,-0.0178,-0.0178,-0.0178,-0.0152,-0.0151,-0.0151,0,0,0,0,0,0,0,0,0,0,0,0,0,-0.0204,-0.0211,-0.0205,-0.0196,-0.0195,-0.0184,-0.0184,-0.0184,-0.0179,-0.0178,-0.0178,-0.0178,-0.0152,-0.0151,-0.0151,-0.0152,0,0,-0.0148,-0.0148,0,0,0,0,0,0,0,0,-0.0204,-0.0204,-0.0198,-0.0197,-0.0195,-0.018,-0.0176,-0.0172,-0.0179,-0.0189,-0.0178,-0.0178,-0.0159,-0.0157,-0.0159,-0.0151,-0.015,-0.0148,-0.0148,-0.0147,-0.0147,0,0,0,0,0,0,0,-0.0205,-0.0205,-0.0201,-0.0197,-0.0196,-0.0182,-0.0182,-0.0175,-0.0178,-0.0188,-0.0186,-0.0178,-0.0158,-0.016,-0.0159,-0.0149,-0.0148,-0.0148,-0.0147,-0.0147,-0.0144,-0.0145,0,0,0,0,0,0,-0.0202,-0.0206,-0.0201,-0.02,-0.0195,-0.0182,-0.0182,-0.0189,-0.0179,-0.0176,-0.0179,-0.0178,-0.0162,-0.016,-0.0158,-0.0171,-0.0147,-0.0147,-0.0146,-0.0144,-0.0144,-0.0145,0,0,0,0,0,0,-0.0203,-0.0203,-0.0202,-0.0198,-0.0197,-0.0182,-0.019,-0.0188,-0.0191,-0.0171,-0.0169,-0.0182,-0.0161,-0.0159,-0.0152,-0.0169,-0.0146,-0.0146,-0.0143,-0.0144,-0.0144,-0.0189,0,0,0,0,0,0,-0.0203,-0.0204,-0.0208,-0.0199,-0.0197,-0.0202,-0.019,-0.0188,-0.0184,-0.0184,-0.0173,-0.0171,-0.0161,-0.0153,-0.0151,-0.0168,-0.0145,-0.0143,-0.0144,-0.0144,-0.0187,-0.0191,-0.0195,0,0,0,0,0,-0.0204,-0.0211,-0.0209,-0.0208,-0.0204,-0.0202,-0.0201,-0.0191,-0.0185,-0.0192,-0.0179,-0.0171,-0.0156,-0.0152,-0.015,-0.0167,-0.0142,-0.0143,-0.0144,-0.0186,-0.0191,-0.0195,0,0,0,0,0,0,-0.0218,-0.0211,-0.0208,-0.0214,-0.021,-0.02,-0.0202,-0.0194,-0.0191,-0.0191,-0.0173,-0.0169,-0.017,-0.016,-0.0156,-0.0168,-0.015,-0.015,-0.0182,-0.0186,-0.019,-0.0195,-0.0144,0,0,0,0,0,-0.0222,-0.0229,-0.0218,-0.0226,-0.0224,-0.0214,-0.0211,-0.0208,-0.02,-0.0199,-0.0189,-0.0179,-0.0173,-0.0172,-0.0164,-0.0169,-0.0141,-0.0179,-0.0183,-0.0186,-0.0188,-0.0161,-0.0162,-0.0148,-0.0148,-0.0148,0,0,-0.0231,-0.0226,-0.0231,-0.0229,-0.0227,-0.0233,-0.0214,-0.0217,-0.0223,-0.0196,-0.0204,-0.019,-0.0175,-0.0182,-0.0182,-0.0176,-0.0172,-0.0187,-0.019,-0.019,-0.0162,-0.0163,-0.0164,-0.0148,-0.0148,-0.0148,0,0,-0.0251,-0.0248,-0.0261,-0.0258,-0.0253,-0.0249,-0.0251,-0.0245,-0.0244,-0.0245,-0.0228,-0.0222,-0.0215,-0.0209,-0.0203,-0.0221,-0.019,-0.0224,-0.0251,-0.0225,-0.0226,-0.0226,-0.0179,-0.0175,-0.023,-0.023,-0.023,0,-0.0262,-0.0275,-0.0264,-0.0273,-0.0272,-0.0259,-0.0272,-0.0271,-0.0264,-0.0265,-0.0253,-0.0245,-0.0228,-0.0236,-0.024,-0.0231,-0.0203,-0.0237,-0.023,-0.023,-0.0229,-0.0181,-0.0176,-0.0232,-0.0232,-0.0231,-0.0231,0,-0.0289,-0.0299,-0.0306,-0.0316,-0.0315,-0.0325,-0.0316,-0.032,-0.0314,-0.0311,-0.0315,-0.0294,-0.0285,-0.0285,-0.0265,-0.0265,-0.024,-0.0234,-0.0219,-0.0234,-0.0182,-0.0176,-0.0235,-0.0234,-0.0234,-0.0233,0,0,-0.032,-0.0325,-0.033,-0.0338,-0.0337,-0.0341,-0.0352,-0.0358,-0.0365,-0.0363,-0.0369,-0.0359,-0.0344,-0.0336,-0.0318,-0.0301,-0.0264,-0.0269,-0.0267,-0.0224,-0.0188,-0.0172,-0.0163,-0.0258,-0.0258,-0.0258,-0.0148,0,-0.0348,-0.0373,-0.0366,-0.0393,-0.0404,-0.0391,-0.04,-0.0402,-0.0398,-0.0401,-0.0389,-0.0383,-0.0366,-0.0356,-0.0339,-0.0283,-0.0252,-0.0293,-0.018,-0.0176,-0.0161,-0.0157,-0.0256,-0.0143,-0.0142,-0.0141,-0.014,0,-0.0378,-0.039,-0.0419,-0.0427,-0.043,-0.0444,-0.045,-0.0454,-0.0453,-0.0445,-0.0445,-0.0424,-0.0401,-0.0378,-0.0299,-0.0326,-0.0256,-0.0214,-0.0208,-0.0175,-0.0149,-0.0128,-0.0128,-0.0129,-0.013,-0.0131,-0.0132,0,-0.0406,-0.0427,-0.045,-0.0453,-0.0461,-0.0472,-0.0476,-0.0476,-0.048,-0.0469,-0.0465,-0.0443,-0.0416,-0.0354,-0.0254,-0.0272,-0.0153,-0.0164,-0.0084,-0.008,-0.0108,-0.0108,-0.0096,-0.0096,-0.0096,-0.0097,-0.0097,0,-0.0434,-0.0456,-0.0467,-0.048,-0.0505,-0.0498,-0.0521,-0.0516,-0.0516,-0.0516,-0.0488,-0.047,-0.0407,-0.0332,-0.0253,-0.0141,-0.0143,-0.0082,-0.0055,-0.0127,-0.0131,-0.0102,-0.0104,-0.0092,-0.0093,-0.0094,-0.0095,0,-0.0461,-0.0469,-0.0496,-0.0513,-0.0519,-0.0537,-0.055,-0.056,-0.055,-0.0545,-0.0537,-0.0483,-0.0378,-0.0295,-0.0171,-0.0128,-0.0028,0.0021,-0.0038,-0.0017,0.0026,0.0021,0.01,0.0101,0.0102,0.0103,0.0104,0,-0.0474,-0.0491,-0.0521,-0.0535,-0.0546,-0.0568,-0.0578,-0.0579,-0.058,-0.0542,-0.0533,-0.0442,-0.0388,-0.0197,-0.0118,0.0033,0.005,0.0098,0.003,0.0027,0.0045,0.0037,0.003,0.0106,0.0106,0.0107,0.0107,0,-0.0495,-0.0509,-0.0531,-0.0561,-0.058,-0.0596,-0.0608,-0.061,-0.0591,-0.059,-0.0504,-0.0415,-0.0295,-0.0177,-0.0047,0.0053,0.005,0.011,0.0107,0.0043,0.0035,0.005,0.0042,0.0111,0.0111,0.011,0.011,0,-0.0508,-0.0528,-0.0554,-0.0577,-0.06,-0.0605,-0.0614,-0.059,-0.0583,-0.0535,-0.05,-0.0376,-0.0312,-0.0162,-0.0046,0.0054,0.0055,0.0058,0.0058,0.0054,-0.0007,-0.0027,0.0058,0,0,0,0,0,-0.0513,-0.0534,-0.0562,-0.0585,-0.0607,-0.0619,-0.062,-0.062,-0.0602,-0.0536,-0.0517,-0.0394,-0.0228,-0.016,-0.0054,-0.0047,0.0058,0.0074,0.0057,0.0134,0.0129,0.0065,0,0,0,0,0,0,-0.0517,-0.0549,-0.0562,-0.0581,-0.0597,-0.0617,-0.0617,-0.0606,-0.0562,-0.0529,-0.0429,-0.0391,-0.022,-0.0283,-0.0058,-0.0031,-0.0034,0.015,0.0152,0.0136,0.0132,0.0128,0.0061,0,0,0,0,0]}]]